2023/01/05 00:00:00,23.8, 0.9
2023/01/05 00:10:00,23.8, 0.7
2023/01/05 00:20:00,23.8, 0.7
2023/01/05 00:30:00,23.7, 0.4
2023/01/05 00:40:00,23.7, 0.6
2023/01/05 00:50:00,23.7, 0.7
2023/01/05 01:00:00,23.7, 0.7
2023/01/05 01:10:00,23.6, 0.3
2023/01/05 01:20:00,23.6, 0.7
2023/01/05 01:30:00,23.6, 0.7
2023/01/05 01:40:00,23.8, 0.9
2023/01/05 01:50:00,24.4, 0.8
2023/01/05 02:00:00,24.5, 0.9
2023/01/05 02:10:00,25.4, 0.9
2023/01/05 02:20:00,25.5, 0.8
2023/01/05 02:30:00,25.8, 1.0
2023/01/05 02:40:00,25.9, 1.0
2023/01/05 02:50:00,26.2, 1.0
2023/01/05 03:00:00,26.4, 0.9
2023/01/05 03:10:00,26.7, 1.0
2023/01/05 03:20:00,27.1, 1.1
2023/01/05 03:30:00,27.5, 0.9
2023/01/05 03:40:00,27.5, 0.8
2023/01/05 03:50:00,27.5, 1.0
2023/01/05 04:00:00,27.6, 1.1
2023/01/05 04:10:00,27.9, 0.9
2023/01/05 04:20:00,28.0, 0.9
2023/01/05 04:30:00,28.5, 1.0
2023/01/05 04:40:00,28.7, 1.0
2023/01/05 04:50:00,29.0, 1.1
2023/01/05 05:00:00,28.9, 1.1
2023/01/05 05:10:00,28.9, 1.0
2023/01/05 05:20:00,29.2, 0.8
2023/01/05 05:30:00,29.2, 1.0
2023/01/05 05:40:00,29.2, 1.0
2023/01/05 05:50:00,29.3, 1.0
2023/01/05 06:00:00,29.2, 1.0
2023/01/05 06:10:00,29.2, 0.9
2023/01/05 06:20:00,29.1, 1.0
2023/01/05 06:30:00,29.2, 1.0
2023/01/05 06:40:00,29.0, 1.0
2023/01/05 06:50:00,29.3, 1.0
2023/01/05 07:00:00,29.2, 0.9
2023/01/05 07:10:00,29.3, 1.1
2023/01/05 07:20:00,29.7, 1.1
2023/01/05 07:30:00,29.6, 1.2
2023/01/05 07:40:00,29.5, 1.0
2023/01/05 07:50:00,30.0, 1.3
2023/01/05 08:00:00,29.9, 1.1
2023/01/05 08:10:00,29.8, 1.5
2023/01/05 08:20:00,29.7, 1.5
2023/01/05 08:30:00,29.8, 1.4
2023/01/05 08:40:00,30.4, 1.3
2023/01/05 08:50:00,30.8, 1.6
2023/01/05 09:00:00,30.8, 1.7
2023/01/05 09:10:00,30.6, 1.4
2023/01/05 09:20:00,30.7, 1.7
2023/01/05 09:30:00,30.7, 2.0
2023/01/05 09:40:00,30.6, 2.6
2023/01/05 09:50:00,30.6, 2.7
2023/01/05 10:00:00,30.4, 2.8
2023/01/05 10:10:00,30.4, 3.1
2023/01/05 10:20:00,30.3, 3.4
2023/01/05 10:30:00,30.1, 3.8
2023/01/05 10:40:00,30.0, 4.6
2023/01/05 10:50:00,30.0, 4.9
2023/01/05 11:00:00,30.0, 3.8
2023/01/05 11:10:00,29.9, 3.6
2023/01/05 11:20:00,29.8, 3.2
2023/01/05 11:30:00,29.8, 2.9
2023/01/05 11:40:00,29.6, 2.5
2023/01/05 11:50:00,29.4, 2.7
2023/01/05 12:00:00,29.3, 3.5
2023/01/05 12:10:00,29.3, 3.0
2023/01/05 12:20:00,29.4, 2.3
2023/01/05 12:30:00,29.3, 2.3
2023/01/05 12:40:00,29.3, 2.0
2023/01/05 12:50:00,29.2, 1.9
2023/01/05 13:00:00,29.2, 2.1
2023/01/05 13:10:00,29.1, 2.0
2023/01/05 13:20:00,29.1, 1.9
2023/01/05 13:30:00,29.2, 1.7
2023/01/05 13:40:00,29.4, 1.7
2023/01/05 13:50:00,29.3, 1.6
2023/01/05 14:00:00,29.3, 1.4
2023/01/05 14:10:00,29.4, 1.7
2023/01/05 14:20:00,29.6, 1.6
2023/01/05 14:30:00,30.2, 1.5
2023/01/05 14:40:00,30.2, 1.9
2023/01/05 14:50:00,29.9, 2.4
2023/01/05 15:00:00,29.8, 2.0
2023/01/05 15:10:00,29.6, 2.8
2023/01/05 15:20:00,29.5, 2.4
2023/01/05 15:30:00,29.4, 2.1
2023/01/05 15:40:00,29.4, 1.9
2023/01/05 15:50:00,29.4, 2.1
2023/01/05 16:00:00,29.2, 2.8
2023/01/05 16:10:00,29.0, 3.0
2023/01/05 16:20:00,29.1, 2.2
2023/01/05 16:30:00,29.0, 1.8
2023/01/05 16:40:00,29.1, 1.7
2023/01/05 16:50:00,29.0, 1.7
2023/01/05 17:00:00,29.0, 1.4
2023/01/05 17:10:00,28.9, 1.2
2023/01/05 17:20:00,28.9, 1.4
2023/01/05 17:30:00,28.9, 1.1
2023/01/05 17:40:00,28.9, 1.1
2023/01/05 17:50:00,28.8, 1.2
2023/01/05 18:00:00,28.8, 1.4
2023/01/05 18:10:00,28.7, 1.2
2023/01/05 18:20:00,28.7, 1.3
2023/01/05 18:30:00,28.6, 1.2
2023/01/05 18:40:00,28.7, 1.1
2023/01/05 18:50:00,28.6, 1.2
2023/01/05 19:00:00,28.6, 1.2
2023/01/05 19:10:00,28.6, 1.1
2023/01/05 19:20:00,28.6, 1.0
2023/01/05 19:30:00,28.6, 1.1
2023/01/05 19:40:00,28.5, 1.0
2023/01/05 19:50:00,28.5, 1.3
2023/01/05 20:00:00,28.5, 1.2
2023/01/05 20:10:00,28.4, 1.3
2023/01/05 20:20:00,28.4, 1.4
2023/01/05 20:30:00,28.3, 1.1
2023/01/05 20:40:00,28.3, 1.2
2023/01/05 20:50:00,28.3, 1.2
2023/01/05 21:00:00,28.3, 1.2
2023/01/05 21:10:00,28.2, 1.4
2023/01/05 21:20:00,28.2, 1.4
2023/01/05 21:30:00,28.1, 1.1
2023/01/05 21:40:00,28.1, 1.3
2023/01/05 21:50:00,28.1, 1.2
2023/01/05 22:00:00,28.0, 1.1
2023/01/05 22:10:00,28.0, 1.1
2023/01/05 22:20:00,28.0, 1.1
2023/01/05 22:30:00,27.9, 1.0
2023/01/05 22:40:00,27.9, 0.8
2023/01/05 22:50:00,27.9, 0.9
2023/01/05 23:00:00,27.9, 1.0
2023/01/05 23:10:00,27.9, 0.6
2023/01/05 23:20:00,27.8, 1.0
2023/01/05 23:30:00,27.8, 1.0
2023/01/05 23:40:00,27.8, 0.5
2023/01/05 23:50:00,27.8, 1.2
